Location: Borgo
(42.3939°N, 9.2791°E)
Time: 15:06:22
(UTC+00:00)

Daily predictions for brighter satellites

Satellite Brightness Start Highest point End
(mag) Time Altitude Azimuth Time Altitude Azimuth Time Altitude Azimuth
NOSS 3-1 (A) 3.9 17:25:41 10° SW 17:31:06 60° NW 17:37:25 10° NNE
STARLINK-1062 3.7 17:31:46 10° SW 17:35:52 67° SE 17:39:58 10° ENE
GPS 2-04 Rocket1 4.1 17:32:30 10° WSW 17:36:15 32° S 17:40:02 10° ESE
CSL-04 Rocket 3.9 17:31:18 10° SE 17:36:34 49° ENE 17:41:49 10° N
Cosmos 1833 4.2 17:33:42 10° NNW 17:39:27 68° ENE 17:45:08 10° SSE
STARLINK-1053 3.6 17:36:44 10° SW 17:40:51 74° SE 17:44:59 10° NE
CZ-2D R/B 3.6 17:37:53 10° SE 17:41:34 43° ENE 17:45:16 10° N
Cosmos 44 3.8 17:39:12 10° NW 17:43:33 58° WSW 17:48:04 10° SSE
CZ-4 R/B 1.4 17:40:56 10° SSE 17:45:07 80° ENE 17:49:15 10° N
STARLINK-1061 3.6 17:41:40 10° SW 17:45:48 80° SE 17:49:57 10° NE
Hubble Space Telescope 3.4 17:45:00 10° SSW 17:46:10 11° S 17:47:20 10° S
Cosmos 1633 Rocket 4.3 17:44:58 10° SSW 17:49:07 46° WNW 17:53:19 10° N
YAOGAN 1 2.5 17:45:01 10° SSE 17:49:18 68° ENE 17:53:37 10° N
CRYOSAT 2 4.5 17:44:53 10° SSE 17:49:40 56° E 17:54:28 10° N
STARLINK-1067 3.6 17:46:39 10° SW 17:50:47 87° SE 17:54:56 10° NE
Ariane Rocket 3.8 17:48:03 10° SE 17:52:23 29° ENE 17:56:45 10° N
STARLINK-1058 3.6 17:51:37 10° SW 17:55:45 86° NW 17:59:54 10° NE
USA 116 4.0 17:53:54 10° NNE 17:58:12 81° ESE 18:03:02 10° S
CSL-04 Debris 4.2 17:53:19 10° SSE 17:58:45 77° ENE 18:04:15 10° N
Cosmos 1943 Rocket 4.0 17:54:12 10° WSW 17:59:05 31° NW 18:03:59 10° N
Cosmos 990 Rocket 4.3 17:54:11 10° N 17:59:06 43° ENE 18:03:58 10° SE
Cosmos 1933 Rocket 3.5 17:55:39 10° S 18:00:03 87° ESE 18:04:27 10° N
STARLINK-1043 3.7 17:56:35 10° WSW 18:00:43 80° NW 18:04:53 10° NE
Cosmos 2297 Rocket 3.9 17:59:43 10° N 18:02:54 15° NE 18:04:59 13° ENE
STARLINK-1065 3.8 18:01:24 10° WSW 18:05:31 74° NW 18:09:29 11° NE
Cosmos 1340 4.0 18:03:21 10° SSW 18:06:57 44° WNW 18:10:34 10° N
NOAA 11 4.3 18:01:50 10° S 18:07:17 80° WSW 18:12:44 10° NNW
Cosmos 1346 Rocket 3.5 18:04:01 10° SSW 18:07:56 58° WNW 18:11:51 10° N
STARLINK-1063 3.9 18:06:33 10° WSW 18:10:39 68° NW 18:14:25 12° NE
Cosmos 1464 Rocket 4.1 18:04:27 10° S 18:10:41 61° E 18:16:59 10° NNE
OE (NEXTSAT) 4.3 18:09:23 10° WNW 18:12:52 71° NNE 18:14:56 22° E
Cosmos 1937 Rocket 3.9 18:08:52 10° N 18:13:52 42° ENE 18:18:46 10° SE
STARLINK-1064 4.0 18:11:33 10° WSW 18:15:39 63° NNW 18:19:12 14° NE
Meteor 2-11 Rocket 4.4 18:10:57 10° S 18:16:59 66° E 18:23:01 10° NNE
ADEOS Rocket 3.5 18:09:32 10° NNE 18:17:24 81° ESE 18:24:54 10° SSW
Meteor 1-20 Rocket 4.2 18:13:54 10° S 18:19:23 88° W 18:24:59 10° N
STARLINK-1041 4.1 18:16:34 10° WSW 18:20:39 58° NNW 18:23:59 15° NE
Cosmos 2227 Rocket 3.6 18:18:25 10° N 18:22:15 18° NE 18:23:26 17° ENE
STARLINK-1038 4.2 18:21:33 10° WSW 18:25:37 54° NNW 18:28:44 16° NE
Cosmos 2221 Rocket 4.3 18:22:59 10° NNE 18:27:01 31° ENE 18:28:34 25° ESE
H-2A R/B 2.4 18:24:16 10° SE 18:29:22 45° ENE 18:34:32 10° N
STARLINK-1046 4.3 18:26:36 10° WSW 18:30:37 50° NNW 18:33:32 18° NE
Cosmos 2034 Rocket 3.9 18:27:11 10° S 18:33:15 65° E 18:39:20 10° NNE
STARLINK-1039 4.4 18:31:39 10° WSW 18:35:39 47° NNW 18:38:21 19° NE
Cosmos 220 Rocket 3.9 18:32:10 10° SSW 18:36:29 87° WNW 18:40:47 10° NNE
Meteor 1-18 Rocket 4.3 18:34:15 10° N 18:40:10 85° W 18:45:57 10° S
COSMOS 2487 4.2 18:37:49 10° NW 18:40:58 34° WSW 18:44:05 10° S
NOSS 8 (E) 4.0 18:40:38 10° SSW 18:44:01 73° SE 18:44:20 64° ENE
HJ-1C 3.9 18:41:16 10° S 18:44:31 58° W 18:47:47 10° NNW
STARLINK-43 3.2 18:42:01 10° NW 18:45:44 72° NE 18:46:22 56° E
Lacrosse 5 rocket 3.1 18:43:56 10° NNW 18:47:31 22° NNE 18:48:11 21° NE
Timation 2 Rocket 4.2 18:40:43 10° NNW 18:47:40 89° SW 18:54:30 10° SSE
Okean 1 3.7 18:44:11 10° NNW 18:48:09 64° W 18:52:04 10° S
Okean 1-7 3.6 18:44:58 10° NNW 18:49:12 58° W 18:53:29 10° S
Cosmos 2219 3.7 18:45:36 10° NNW 18:51:02 41° ENE 18:52:15 36° E
NOSS 2-2 (C) 4.4 18:48:36 10° S 18:50:32 27° SSE 18:50:32 27° SSE
MOS 1 4.2 18:46:21 10° SSE 18:51:59 73° ENE 18:57:38 10° N
Lacrosse 5 2.1 18:47:19 10° SW 18:52:23 69° NW 18:55:38 22° NE
NOSS 2-2 (E) 3.5 18:48:57 10° SSW 18:51:52 46° SSE 18:51:52 46° SSE
Cosmos 1092 Rocket 4.1 18:48:25 10° N 18:54:39 54° ENE 18:58:48 21° SSE
Cosmos 1634 Rocket 4.3 18:51:08 10° SSE 18:57:01 44° E 19:02:58 10° NNE
Meteor 2-4 Rocket 3.7 18:52:43 10° N 18:58:40 71° E 19:03:43 15° SSE
Cosmos 1814 Rocket 3.8 18:54:58 10° S 19:00:03 73° ESE 19:05:12 10° NNE
Gbstr 26 Del rocket 4.2 18:56:12 10° W 19:00:05 38° NNW 19:02:07 25° NNE
USA 186 4.2 19:05:54 13° NNW 19:05:54 13° NNW 19:06:18 10° NNW
Cosmos 841 Rocket 3.4 19:00:58 10° SSW 19:06:06 88° WNW 19:11:20 10° NNE
Cosmos 44 Rocket 3.7 19:01:37 10° NW 19:06:17 57° WSW 19:08:48 26° S
Cosmos 2195 Rocket 4.5 19:00:31 10° N 19:06:33 55° E 19:08:27 40° SE
Cosmos 1763 Rocket 4.4 19:01:34 10° SW 19:06:37 49° WNW 19:11:47 10° N
Cosmos 1898 Rocket 4.4 19:01:48 10° NNW 19:06:46 47° WSW 19:11:42 10° S
SJ 16-02 2.6 19:03:44 10° NNW 19:07:52 41° WSW 19:11:59 10° S
ARGOS 3.0 19:04:37 21° SSE 19:08:21 83° ENE 19:13:49 10° NNW
NOSS 3-2 (A) 4.3 19:01:11 10° NNW 19:08:27 51° NE 19:10:56 39° E
Resurs 01 Rocket 3.6 19:11:23 17° NNE 19:11:23 17° NNE 19:12:35 10° N
Cosmos 2298 Rocket 4.1 19:06:41 10° NNW 19:11:57 56° ENE 19:12:02 56° ENE
ARGOS Delta rocket 3.4 19:13:11 78° ENE 19:13:11 78° ENE 19:17:39 10° N
Cosmos 2208 Rocket 4.3 19:07:51 10° SSW 19:13:15 71° WNW 19:18:37 10° NNE
Meteor 1-11 Rocket 3.6 19:08:17 10° S 19:13:44 58° E 19:19:10 10° NNE
SPOT 3 Rocket 3.5 19:13:10 60° ESE 19:13:45 65° ENE 19:18:55 10° N
GPS 2-04 Rocket1 4.3 19:11:49 10° WSW 19:15:11 26° SSW 19:15:11 26° SSW
USA 102 4.4 19:17:28 75° WNW 19:17:28 75° WNW 19:20:13 27° SW
CENTAUR R/B 3.7 19:13:47 10° NNW 19:21:08 39° NE 19:22:39 36° ENE
CZ-2C R/B 3.4 19:18:39 16° S 19:23:26 76° WSW 19:29:07 10° NNW
SJ-6B 3.9 19:29:20 40° NW 19:29:20 40° NW 19:32:02 10° NNW
Cosmos 2150 Rocket 4.0 19:23:18 10° NNW 19:28:23 69° NE 19:28:23 69° NE
Ariane Rocket 4.5 19:26:34 10° SSW 19:31:13 35° W 19:35:53 10° NNW
Cosmos 540 Rocket 3.9 19:27:41 10° SSW 19:32:43 59° WNW 19:37:49 10° NNE
Okean 3 4.2 19:29:42 10° NNW 19:33:29 51° WNW 19:33:29 51° WNW
ATLAS 3B R/B 3.8 19:30:10 10° NNW 19:35:31 27° NNE 19:35:31 27° NNE
Cosmos 1627 Rocket 4.3 19:33:58 10° N 19:40:10 89° W 19:41:01 69° S
SL-08 RB Rocket 4.4 19:42:33 49° NW 19:42:33 49° NW 19:46:06 10° NNW
Meteor 1-13 Rocket 4.4 19:37:46 10° NNW 19:43:36 72° W 19:44:37 58° SSW
Cosmos 2297 Rocket 2.4 19:42:10 10° NNW 19:46:50 61° N 19:46:50 61° N
ATLAS 2AS CENTAUR R/B 3.6 19:48:47 10° SSW 19:53:45 41° S 19:53:45 41° S
ATLAS CENTAUR Rocket 4.4 19:51:08 10° SW 20:32:48 - E 19:55:53 35° SSE
Cosmos 2026 Rocket 4.1 19:51:58 10° NNW 19:58:05 69° W 19:58:22 68° WSW
Cosmos 2227 Rocket 3.0 20:01:19 10° NNW 20:05:17 47° NNW 20:05:17 47° NNW
H-2A R/B 4.1 20:04:33 10° SSW 20:08:55 25° W 20:13:23 10° NW
USA 238 DEB 3.8 20:02:13 10° NW 20:09:21 78° WSW 20:09:21 78° WSW
USA 238 3.8 20:02:19 10° NW 20:09:24 79° WSW 20:09:24 79° WSW
Lacrosse 5 rocket 4.2 20:22:40 10° NW 20:23:51 18° NW 20:23:51 18° NW
Lacrosse 5 4.2 20:32:15 10° WNW 20:34:52 20° NW 20:34:52 20° NW
USA 234 4.5 20:42:41 33° N 20:42:41 33° N 20:46:46 10° NW
CENTAUR R/B 3.9 21:04:19 10° NW 21:09:52 47° WNW 21:09:52 47° WNW
